QPF
0.02 0.03 0.03 0.03 0.04 0.03 0.03 0.03 0.03 0.02 0.02 0.02 0.02 0.02 0.01 0.01 0.02 0.02 0.02 0.04 0.05 0.06 0.09 0.12 0.11 0.10 0.07 0.06 0.05 0.06 0.04 0.05 0.06 0.07 0.08 0.08 0.07 0.08
0.01 0.02 0.03 0.04 0.05 0.04 0.03 0.03 0.02 0.02 0.01 0.01 0.01 0.01 0.02 0.03 0.03 0.03 0.03 0.03 0.04 0.04 0.05 0.06 0.07 0.07 0.06 0.05 0.04 0.05 0.04 0.03 0.03 0.03 0.02 0.02 0.02 0.03
0.01 0.02 0.02 0.02 0.03 0.04 0.04 0.03 0.02 0.02 0.01 0.01 0.01 0.01 0.02 0.03 0.05 0.08 0.06 0.04 0.04 0.05 0.06 0.05 0.04 0.04 0.05 0.05 0.06 0.07 0.07 0.05 0.04 0.03 0.01 0.01 0.01 0.01
0.00 0.01 0.01 0.01 0.02 0.02 0.02 0.02 0.02 0.02 0.01 0.01 0.01 0.02 0.02 0.02 0.02 0.05 0.05 0.03 0.03 0.04 0.06 0.06 0.05 0.05 0.04 0.04 0.04 0.07 0.07 0.05 0.03 0.02 0.01 0.01 0.01 0.01
0.00 0.00 0.00 0.01 0.01 0.02 0.01 0.01 0.01 0.02 0.02 0.02 0.02 0.02 0.01 0.01 0.01 0.01 0.02 0.02 0.01 0.02 0.03 0.04 0.03 0.02 0.03 0.03 0.03 0.04 0.03 0.04 0.03 0.01 0.01 0.00 0.00 0.01
0.00 0.00 0.00 0.01 0.01 0.02 0.01 0.01 0.01 0.02 0.03 0.04 0.03 0.02 0.01 0.01 0.01 0.02 0.03 0.02 0.01 0.01 0.01 0.01 0.01 0.01 0.02 0.02 0.02 0.02 0.02 0.02 0.01 0.01 0.01 0.00 0.01 0.01
0.00 0.00 0.00 0.01 0.01 0.02 0.02 0.01 0.01 0.02 0.04 0.04 0.03 0.02 0.02 0.02 0.03 0.05 0.03 0.02 0.02 0.01 0.01 0.00 0.01 0.01 0.01 0.02 0.02 0.01 0.01 0.01 0.01 0.01 0.00 0.01 0.01 0.01
0.00 0.00 0.00 0.00 0.01 0.02 0.02 0.01 0.01 0.01 0.02 0.01 0.01 0.01 0.01 0.01 0.01 0.02 0.03 0.03 0.02 0.01 0.01 0.00 0.00 0.01 0.01 0.01 0.01 0.01 0.01 0.01 0.01 0.01 0.00 0.00 0.01 0.01
0.00 0.00 0.00 0.00 0.01 0.01 0.00 0.00 0.01 0.01 0.01 0.01 0.01 0.01 0.01 0.01 0.01 0.01 0.02 0.02 0.02 0.01 0.01 0.01 0.01 0.01 0.01 0.01 0.02 0.02 0.01 0.01 0.00 0.00 0.00 0.00 0.00 0.00
0.00 0.00 0.00 0.00 0.00 0.00 0.00 0.00 0.00 0.00 0.01 0.01 0.01 0.01 0.01 0.01 0.01 0.02 0.04 0.05 0.04 0.04 0.02 0.02 0.01 0.00 0.00 0.01 0.01 0.01 0.01 0.01 0.00 0.00 0.00 0.00 0.00 0.00
0.00 0.00 0.00 0.00 0.00 0.00 0.00 0.00 0.00 0.00 0.00 0.01 0.01 0.01 0.02 0.02 0.03 0.05 0.06 0.06 0.05 0.04 0.03 0.02 0.02 0.01 0.00 0.00 0.01 0.00 0.00 0.00 0.00 0.00 0.00 0.00 0.00 0.00
0.00 0.00 0.00 0.00 0.00 0.00 0.00 0.00 0.00 0.00 0.00 0.01 0.01 0.02 0.04 0.05 0.06 0.06 0.06 0.05 0.03 0.02 0.01 0.01 0.01 0.01 0.01 0.00 0.00 0.00 0.00 0.00 0.00 0.00 0.00 0.00 0.00 0.00
0.00 0.00 0.00 0.00 0.00 0.00 0.00 0.00 0.00 0.00 0.00 0.01 0.02 0.03 0.04 0.05 0.05 0.05 0.05 0.04 0.02 0.01 0.01 0.01 0.01 0.01 0.01 0.01 0.00 0.00 0.00 0.00 0.01 0.01 0.01 0.00 0.00 0.00
0.00 0.00 0.00 0.00 0.00 0.00 0.00 0.00 0.00 0.00 0.00 0.01 0.01 0.02 0.02 0.02 0.02 0.02 0.02 0.02 0.02 0.02 0.02 0.01 0.01 0.01 0.01 0.01 0.01 0.00 0.01 0.01 0.01 0.01 0.01 0.01 0.00 0.00
0.00 0.00 0.00 0.00 0.00 0.00 0.00 0.00 0.00 0.00 0.00 0.00 0.00 0.00 0.01 0.01 0.01 0.01 0.01 0.01 0.01 0.02 0.02 0.02 0.02 0.02 0.02 0.01 0.01 0.01 0.01 0.01 0.01 0.02 0.02 0.01 0.01 0.01
0.00 0.00 0.00 0.00 0.00 0.00 0.00 0.00 0.00 0.00 0.00 0.00 0.01 0.01 0.01 0.01 0.01 0.01 0.01 0.01 0.01 0.01 0.01 0.02 0.02 0.02 0.02 0.02 0.02 0.01 0.01 0.01 0.02 0.02 0.01 0.01 0.01 0.01
0.01 0.01 0.01 0.00 0.00 0.00 0.00 0.00 0.00 0.00 0.01 0.01 0.01 0.01 0.01 0.01 0.01 0.01 0.01 0.02 0.02 0.01 0.02 0.02 0.03 0.03 0.03 0.02 0.02 0.02 0.01 0.01 0.02 0.02 0.02 0.02 0.01 0.01
0.01 0.01 0.01 0.01 0.01 0.01 0.01 0.01 0.01 0.01 0.01 0.01 0.01 0.01 0.01 0.02 0.02 0.02 0.02 0.02 0.03 0.03 0.03 0.02 0.03 0.03 0.03 0.02 0.02 0.02 0.02 0.02 0.02 0.02 0.02 0.01 0.01 0.01
0.01 0.01 0.01 0.01 0.01 0.01 0.01 0.01 0.01 0.01 0.01 0.01 0.01 0.02 0.02 0.02 0.03 0.03 0.03 0.03 0.03 0.03 0.02 0.03 0.04 0.04 0.04 0.04 0.03 0.02 0.03 0.03 0.03 0.02 0.02 0.01 0.01 0.01
0.02 0.01 0.01 0.01 0.01 0.01 0.01 0.01 0.01 0.01 0.02 0.01 0.02 0.02 0.02 0.03 0.03 0.04 0.04 0.03 0.04 0.03 0.03 0.03 0.03 0.03 0.03 0.02 0.03 0.03 0.04 0.05 0.04 0.03 0.02 0.02 0.02 0.02
0.02 0.02 0.02 0.02 0.02 0.01 0.01 0.01 0.01 0.01 0.02 0.02 0.03 0.04 0.03 0.04 0.04 0.05 0.06 0.05 0.05 0.05 0.04 0.03 0.02 0.02 0.03 0.04 0.04 0.03 0.03 0.04 0.04 0.03 0.03 0.02 0.02 0.02
0.03 0.03 0.02 0.02 0.01 0.02 0.02 0.01 0.01 0.02 0.02 0.03 0.04 0.05 0.05 0.05 0.07 0.08 0.07 0.06 0.05 0.04 0.04 0.04 0.03 0.04 0.04 0.05 0.04 0.03 0.03 0.04 0.04 0.04 0.04 0.03 0.02 0.02
0.02 0.02 0.02 0.02 0.02 0.02 0.02 0.02 0.02 0.03 0.03 0.03 0.03 0.03 0.03 0.02 0.03 0.04 0.04 0.04 0.04 0.04 0.05 0.05 0.04 0.04 0.04 0.04 0.03 0.02 0.02 0.03 0.03 0.04 0.04 0.04 0.03 0.02
MSLP
1015.69 1015.74 1015.79 1015.83 1015.83 1015.79 1015.69 1015.58 1015.46 1015.36 1015.32 1015.33 1015.40 1015.51 1015.63 1015.74 1015.82 1015.85 1015.85 1015.81 1015.76 1015.72 1015.69 1015.70 1015.72 1015.74 1015.75 1015.74 1015.69 1015.61 1015.49 1015.36 1015.21 1015.07 1014.92 1014.75 1014.54 1014.28
1015.54 1015.57 1015.60 1015.62 1015.61 1015.56 1015.48 1015.39 1015.31 1015.27 1015.29 1015.36 1015.49 1015.64 1015.79 1015.92 1016.00 1016.02 1016.00 1015.94 1015.87 1015.82 1015.79 1015.79 1015.81 1015.85 1015.87 1015.88 1015.84 1015.77 1015.66 1015.52 1015.35 1015.18 1014.98 1014.75 1014.47 1014.12
1015.38 1015.37 1015.37 1015.36 1015.32 1015.27 1015.20 1015.14 1015.11 1015.12 1015.19 1015.31 1015.48 1015.66 1015.83 1015.96 1016.03 1016.04 1016.00 1015.92 1015.84 1015.77 1015.73 1015.74 1015.77 1015.83 1015.88 1015.91 1015.90 1015.85 1015.75 1015.62 1015.46 1015.26 1015.04 1014.76 1014.43 1014.01
1015.28 1015.22 1015.17 1015.12 1015.06 1014.99 1014.93 1014.88 1014.87 1014.92 1015.02 1015.17 1015.35 1015.54 1015.71 1015.83 1015.88 1015.88 1015.82 1015.73 1015.63 1015.56 1015.53 1015.55 1015.60 1015.68 1015.76 1015.82 1015.85 1015.82 1015.75 1015.64 1015.48 1015.29 1015.05 1014.76 1014.39 1013.94
1015.30 1015.18 1015.07 1014.97 1014.87 1014.78 1014.70 1014.65 1014.63 1014.68 1014.77 1014.92 1015.09 1015.26 1015.41 1015.50 1015.54 1015.51 1015.44 1015.35 1015.26 1015.20 1015.19 1015.23 1015.31 1015.42 1015.54 1015.63 1015.69 1015.69 1015.65 1015.56 1015.43 1015.25 1015.02 1014.73 1014.36 1013.90
1015.48 1015.29 1015.12 1014.95 1014.80 1014.66 1014.54 1014.44 1014.40 1014.40 1014.46 1014.56 1014.69 1014.82 1014.92 1014.99 1015.00 1014.96 1014.89 1014.81 1014.74 1014.71 1014.73 1014.81 1014.92 1015.07 1015.21 1015.34 1015.43 1015.47 1015.46 1015.40 1015.29 1015.14 1014.94 1014.67 1014.32 1013.89
1015.81 1015.55 1015.30 1015.07 1014.84 1014.63 1014.45 1014.29 1014.17 1014.11 1014.09 1014.12 1014.17 1014.23 1014.29 1014.31 1014.30 1014.26 1014.21 1014.15 1014.12 1014.12 1014.18 1014.30 1014.45 1014.63 1014.80 1014.96 1015.09 1015.16 1015.19 1015.17 1015.10 1014.99 1014.82 1014.60 1014.31 1013.93
1016.26 1015.93 1015.60 1015.30 1015.00 1014.71 1014.44 1014.19 1013.98 1013.82 1013.70 1013.63 1013.59 1013.58 1013.57 1013.55 1013.52 1013.48 1013.44 1013.41 1013.42 1013.47 1013.57 1013.71 1013.90 1014.11 1014.32 1014.52 1014.68 1014.79 1014.86 1014.89 1014.87 1014.81 1014.71 1014.55 1014.33 1014.03
1016.78 1016.38 1016.00 1015.62 1015.24 1014.87 1014.51 1014.17 1013.85 1013.58 1013.35 1013.17 1013.03 1012.93 1012.85 1012.79 1012.74 1012.69 1012.66 1012.66 1012.69 1012.77 1012.90 1013.07 1013.29 1013.53 1013.77 1014.00 1014.20 1014.37 1014.49 1014.58 1014.63 1014.64 1014.62 1014.54 1014.40 1014.20
1017.33 1016.88 1016.45 1016.01 1015.57 1015.13 1014.69 1014.25 1013.84 1013.45 1013.11 1012.83 1012.59 1012.40 1012.25 1012.13 1012.04 1011.98 1011.94 1011.93 1011.97 1012.05 1012.19 1012.38 1012.60 1012.86 1013.13 1013.40 1013.65 1013.89 1014.08 1014.25 1014.39 1014.49 1014.55 1014.57 1014.53 1014.43
1017.85 1017.39 1016.93 1016.46 1015.99 1015.50 1015.00 1014.49 1013.99 1013.51 1013.08 1012.69 1012.35 1012.08 1011.85 1011.66 1011.51 1011.40 1011.32 1011.28 1011.28 1011.34 1011.45 1011.62 1011.84 1012.11 1012.40 1012.71 1013.03 1013.34 1013.63 1013.89 1014.13 1014.33 1014.50 1014.61 1014.68 1014.68
1018.34 1017.89 1017.43 1016.97 1016.49 1015.98 1015.45 1014.89 1014.34 1013.79 1013.28 1012.80 1012.38 1012.02 1011.70 1011.43 1011.20 1011.00 1010.84 1010.73 1010.66 1010.64 1010.70 1010.82 1011.01 1011.27 1011.58 1011.93 1012.31 1012.70 1013.09 1013.47 1013.82 1014.13 1014.40 1014.62 1014.78 1014.88
1018.80 1018.38 1017.96 1017.53 1017.07 1016.57 1016.04 1015.47 1014.88 1014.30 1013.72 1013.18 1012.69 1012.23 1011.82 1011.45 1011.11 1010.80 1010.53 1010.29 1010.11 1009.99 1009.95 1009.99 1010.12 1010.35 1010.66 1011.05 1011.49 1011.96 1012.45 1012.93 1013.39 1013.82 1014.19 1014.50 1014.75 1014.94
1019.22 1018.86 1018.50 1018.12 1017.71 1017.25 1016.74 1016.18 1015.59 1014.99 1014.38 1013.79 1013.23 1012.69 1012.19 1011.71 1011.24 1010.80 1010.38 1010.00 1009.67 1009.41 1009.23 1009.17 1009.22 1009.40 1009.69 1010.08 1010.56 1011.10 1011.67 1012.24 1012.79 1013.31 1013.77 1014.17 1014.49 1014.76
1019.61 1019.32 1019.04 1018.73 1018.38 1017.97 1017.50 1016.97 1016.40 1015.80 1015.18 1014.56 1013.94 1013.34 1012.74 1012.15 1011.56 1010.98 1010.40 1009.86 1009.36 1008.94 1008.61 1008.42 1008.36 1008.45 1008.69 1009.07 1009.55 1010.11 1010.72 1011.35 1011.96 1012.54 1013.07 1013.53 1013.92 1014.25
1019.96 1019.75 1019.54 1019.31 1019.02 1018.67 1018.25 1017.76 1017.22 1016.63 1016.01 1015.38 1014.73 1014.08 1013.41 1012.72 1012.02 1011.30 1010.58 1009.87 1009.21 1008.62 1008.14 1007.79 1007.60 1007.58 1007.73 1008.03 1008.47 1009.01 1009.61 1010.25 1010.88 1011.49 1012.05 1012.55 1012.99 1013.38
1020.27 1020.13 1019.98 1019.81 1019.58 1019.28 1018.90 1018.46 1017.95 1017.39 1016.79 1016.17 1015.51 1014.83 1014.12 1013.37 1012.58 1011.75 1010.90 1010.05 1009.23 1008.49 1007.84 1007.34 1007.00 1006.83 1006.85 1007.04 1007.39 1007.84 1008.38 1008.97 1009.57 1010.16 1010.72 1011.24 1011.71 1012.16
1020.50 1020.42 1020.33 1020.19 1020.01 1019.74 1019.41 1019.00 1018.53 1018.00 1017.44 1016.84 1016.20 1015.53 1014.80 1014.02 1013.18 1012.28 1011.34 1010.38 1009.44 1008.55 1007.75 1007.09 1006.59 1006.26 1006.12 1006.16 1006.35 1006.68 1007.10 1007.58 1008.10 1008.63 1009.16 1009.67 1010.17 1010.66
1020.67 1020.62 1020.56 1020.45 1020.28 1020.04 1019.73 1019.35 1018.92 1018.44 1017.92 1017.36 1016.76 1016.12 1015.41 1014.63 1013.77 1012.84 1011.84 1010.81 1009.77 1008.77 1007.85 1007.03 1006.37 1005.87 1005.55 1005.41 1005.43 1005.58 1005.85 1006.19 1006.60 1007.04 1007.51 1008.00 1008.51 1009.04
1020.76 1020.74 1020.68 1020.58 1020.41 1020.18 1019.88 1019.53 1019.13 1018.69 1018.22 1017.72 1017.17 1016.57 1015.90 1015.15 1014.30 1013.37 1012.35 1011.28 1010.18 1009.09 1008.06 1007.12 1006.31 1005.65 1005.16 1004.83 1004.67 1004.64 1004.73 1004.92 1005.19 1005.53 1005.93 1006.38 1006.88 1007.43
1020.80 1020.77 1020.71 1020.59 1020.41 1020.18 1019.89 1019.55 1019.18 1018.79 1018.37 1017.92 1017.43 1016.88 1016.26 1015.54 1014.72 1013.80 1012.78 1011.69 1010.55 1009.41 1008.30 1007.27 1006.35 1005.56 1004.92 1004.43 1004.10 1003.91 1003.84 1003.88 1004.02 1004.25 1004.56 1004.95 1005.43 1005.99
1020.79 1020.75 1020.66 1020.52 1020.33 1020.08 1019.79 1019.47 1019.13 1018.77 1018.40 1017.99 1017.55 1017.05 1016.46 1015.78 1014.98 1014.07 1013.06 1011.96 1010.81 1009.64 1008.49 1007.40 1006.41 1005.53 1004.79 1004.19 1003.74 1003.42 1003.22 1003.14 1003.17 1003.29 1003.52 1003.85 1004.28 1004.82
1020.74 1020.67 1020.56 1020.40 1020.18 1019.93 1019.65 1019.34 1019.02 1018.69 1018.34 1017.97 1017.55 1017.07 1016.50 1015.83 1015.04 1014.14 1013.13 1012.03 1010.88 1009.71 1008.55 1007.45 1006.43 1005.53 1004.75 1004.09 1003.58 1003.19 1002.91 1002.75 1002.69 1002.73 1002.87 1003.12 1003.48 1003.95
Thickness
5746 5745 5743 5741 5738 5735 5732 5726 5716 5705 5700 5700 5697 5697 5695 5694 5692 5691 5689 5688 5687 5686 5685 5683 5682 5679 5677 5676 5674 5672 5670 5669 5667 5665 5663 5661 5659 5658
5743 5741 5739 5737 5735 5732 5729 5725 5720 5712 5702 5699 5696 5694 5692 5690 5687 5685 5684 5682 5680 5679 5677 5676 5674 5672 5670 5668 5666 5664 5662 5660 5658 5655 5653 5651 5650 5648
5740 5737 5735 5734 5731 5728 5725 5721 5717 5712 5703 5696 5693 5691 5688 5685 5682 5680 5678 5675 5673 5671 5670 5668 5666 5664 5662 5660 5658 5655 5653 5651 5648 5646 5644 5642 5640 5638
5735 5733 5731 5730 5727 5724 5721 5717 5712 5709 5703 5694 5689 5686 5683 5681 5677 5674 5671 5669 5667 5665 5663 5660 5658 5656 5654 5652 5649 5647 5644 5641 5639 5636 5634 5632 5630 5628
5732 5730 5727 5725 5722 5719 5717 5712 5708 5705 5700 5693 5687 5683 5679 5676 5672 5668 5666 5663 5661 5658 5655 5653 5651 5649 5646 5644 5641 5638 5635 5632 5630 5627 5624 5621 5619 5618
5729 5727 5724 5722 5719 5716 5712 5708 5703 5698 5693 5688 5683 5679 5675 5672 5667 5663 5658 5656 5654 5651 5648 5646 5643 5641 5638 5636 5633 5630 5627 5623 5620 5618 5615 5612 5610 5608
5724 5722 5721 5719 5716 5713 5709 5704 5699 5693 5687 5682 5678 5674 5670 5666 5663 5659 5654 5650 5647 5645 5641 5639 5636 5634 5631 5628 5625 5622 5619 5615 5612 5609 5606 5603 5601 5599
5719 5717 5715 5713 5711 5709 5706 5702 5697 5691 5685 5679 5674 5670 5667 5664 5660 5656 5649 5645 5640 5639 5635 5632 5629 5626 5624 5622 5619 5615 5612 5608 5605 5602 5598 5595 5593 5591
5714 5711 5710 5707 5705 5702 5699 5696 5692 5689 5685 5680 5673 5669 5665 5662 5657 5651 5646 5642 5638 5636 5630 5625 5623 5619 5618 5615 5612 5609 5605 5602 5598 5595 5592 5589 5586 5583
5710 5706 5703 5700 5698 5695 5692 5688 5685 5683 5680 5677 5673 5669 5665 5661 5656 5650 5644 5637 5634 5630 5626 5620 5617 5614 5613 5610 5607 5603 5599 5595 5592 5589 5586 5583 5580 5577
5705 5702 5699 5696 5693 5690 5686 5681 5678 5676 5674 5672 5669 5665 5661 5656 5651 5644 5637 5631 5626 5623 5621 5616 5613 5609 5606 5604 5602 5598 5594 5590 5587 5583 5580 5577 5574 5571
5699 5696 5694 5691 5688 5685 5680 5676 5672 5669 5667 5664 5661 5657 5654 5649 5645 5640 5634 5627 5621 5617 5616 5612 5607 5603 5599 5598 5597 5593 5589 5585 5582 5578 5575 5572 5568 5565
5694 5691 5688 5686 5683 5679 5675 5672 5668 5665 5660 5656 5652 5649 5646 5642 5638 5634 5630 5625 5619 5615 5614 5609 5603 5598 5594 5591 5590 5588 5584 5581 5577 5573 5570 5567 5563 5559
5689 5686 5683 5680 5677 5674 5670 5667 5663 5658 5653 5648 5644 5640 5637 5634 5632 5629 5625 5622 5618 5615 5612 5607 5601 5596 5590 5585 5583 5581 5579 5576 5572 5568 5565 5562 5558 5554
5684 5681 5678 5674 5671 5667 5664 5661 5656 5651 5646 5641 5637 5635 5632 5630 5626 5622 5619 5615 5612 5610 5607 5603 5599 5594 5588 5583 5578 5575 5572 5570 5567 5563 5559 5556 5552 5549
5677 5674 5670 5667 5663 5660 5656 5652 5649 5645 5641 5636 5633 5630 5626 5623 5619 5615 5611 5607 5604 5601 5600 5597 5594 5590 5584 5579 5574 5570 5567 5564 5562 5559 5555 5551 5547 5544
5669 5665 5661 5658 5654 5651 5648 5645 5641 5637 5633 5630 5627 5623 5619 5615 5612 5608 5604 5600 5596 5593 5591 5589 5586 5583 5580 5575 5569 5566 5562 5559 5557 5554 5549 5545 5542 5540
5663 5658 5655 5652 5649 5645 5641 5638 5635 5632 5628 5625 5621 5617 5613 5609 5606 5602 5598 5594 5590 5587 5584 5581 5578 5574 5570 5568 5566 5562 5558 5555 5552 5548 5544 5539 5537 5536
5656 5653 5650 5647 5643 5640 5637 5633 5630 5628 5624 5619 5616 5612 5608 5604 5600 5595 5591 5587 5584 5581 5578 5575 5571 5567 5562 5559 5560 5559 5554 5550 5546 5542 5538 5535 5533 5532
5650 5647 5644 5641 5638 5634 5631 5628 5624 5621 5617 5613 5610 5606 5602 5598 5594 5590 5586 5582 5579 5576 5573 5570 5566 5563 5559 5557 5554 5552 5551 5546 5541 5536 5533 5531 5528 5527
5645 5642 5639 5636 5632 5629 5626 5622 5619 5616 5612 5608 5604 5601 5597 5593 5589 5585 5582 5578 5574 5571 5567 5565 5565 5562 5558 5552 5547 5545 5545 5543 5539 5534 5529 5525 5521 5518
5640 5637 5635 5631 5627 5624 5620 5616 5613 5610 5606 5603 5600 5596 5593 5589 5585 5581 5577 5573 5569 5566 5564 5562 5560 5556 5551 5547 5543 5540 5538 5537 5534 5530 5527 5524 5519 5515
5636 5632 5630 5626 5622 5618 5615 5611 5608 5605 5602 5598 5595 5591 5588 5584 5580 5577 5573 5570 5566 5562 5559 5556 5553 5549 5546 5543 5539 5535 5533 5530 5527 5524 5521 5521 5518 5516